Van, Turkey

8:11 AM +03 on December 04, 2016 (GMT +0300)
Van

Weather History for LTCI - October, 2012

Change the Weather History Date:

Saturday, October 20, 2012

  Actual Average Record
Temperature  
Mean Temperature 52 °F -  
Max Temperature 64 °F 59 °F 69 °F (2004)
Min Temperature 41 °F 41 °F 30 °F (2011)
Degree Days  
Heating Degree Days 12    
Growing Degree Days 2 (Base 50)    
Moisture  
Dew Point 38 °F    
Average Humidity 58    
Maximum Humidity 87    
Minimum Humidity 30    
Precipitation  
Precipitation 0.01 in - - ()
Sea Level Pressure  
Sea Level Pressure 30.25 in    
Wind  
Wind Speed 5 mph ()    
Max Wind Speed 17 mph    
Max Gust Speed -    
Visibility 6.2 miles    
Events Rain , Thunderstorm    
Averages and records for this station are not official NWS values.
T = Trace of Precipitation, MM = Missing Value Source: Averaged Metar Reports

Daily Weather History Graph

Daily Weather History Graph

Search for Another Location

Airport or City:

Trip Planner

Search our weather history database for the weather conditions in past years. The results will help you decide how hot, cold, wet, or windy it might be!

Date:

Astronomy

Oct. 20, 2012 Rise Set
Actual Time 6:20 AM EEST 5:21 PM EEST
Civil Twilight 5:53 AM EEST 5:48 PM EEST
Nautical Twilight 5:22 AM EEST 6:19 PM EEST
Astronomical Twilight 4:52 AM EEST 6:49 PM EEST
Moon 11:35 AM EEST (10/20) 9:44 PM EEST (10/20)
Length of Visible Light 11h 54m
Length of Day
11h 00m
Waxing Crescent, 31% of the Moon is Illuminated
Oct 20
Waxing Crescent
Oct 22
First Quarter
Oct 29
Full
Nov 7
Last Quarter
Nov 14
New

Hourly Weather History & Observations

Time (EEST) Temp. Windchill Dew Point Humidity Pressure Visibility Wind Dir Wind Speed Gust Speed Precip Events Conditions
12:50 AM 53.6 °F - 33.8 °F 47% 30.24 in 6.2 mi NNW 4.6 mph - N/A   Mostly Cloudy
1:50 AM 55.4 °F - 33.8 °F 44% 30.24 in 6.2 mi ENE 8.1 mph - N/A   Mostly Cloudy
3:00 AM 53 °F - 35 °F 38%  in 6 mi East 3.5 mph - -   Partly Cloudy
3:50 AM 48.2 °F - 35.6 °F 62% 30.24 in 6.2 mi ENE 3.5 mph - N/A   Mostly Cloudy
4:50 AM 46.4 °F 44.3 °F 33.8 °F 62% 30.24 in 6.2 mi ENE 4.6 mph - N/A   Mostly Cloudy
5:50 AM 42.8 °F - 35.6 °F 76% 30.24 in 6.2 mi Variable 1.2 mph - N/A   Partly Cloudy
6:50 AM 42.8 °F - 32.0 °F 66% 30.24 in 6.2 mi Variable 1.2 mph - N/A   Partly Cloudy
7:50 AM 55.4 °F - 37.4 °F 51% 30.24 in 6.2 mi Variable 2.3 mph - N/A   Scattered Clouds
8:50 AM 57.2 °F - 37.4 °F 48% 30.27 in 6.2 mi Variable 3.5 mph - N/A   Scattered Clouds
9:00 AM 58 °F - 37 °F 33%  in 6 mi North 3.5 mph - -   Partly Cloudy
9:50 AM 62.6 °F - 35.6 °F 37% 30.24 in 6.2 mi North 6.9 mph - N/A   Scattered Clouds
10:50 AM 64.4 °F - 32.0 °F 30% 30.24 in 6.2 mi WNW 6.9 mph - N/A   Mostly Cloudy
11:50 AM 60.8 °F - 41.0 °F 48% 30.24 in 6.2 mi West 10.4 mph - N/A   Mostly Cloudy
12:50 PM 59.0 °F - 42.8 °F 55% 30.24 in 6.2 mi West 16.1 mph - N/A   Mostly Cloudy
1:50 PM 59.0 °F - 39.2 °F 48% 30.24 in 6.2 mi WSW 5.8 mph - N/A   Mostly Cloudy
2:50 PM 53.6 °F - 44.6 °F 72% 30.27 in 6.2 mi SW 17.3 mph - N/A Rain , Thunderstorm Light Thunderstorms and Rain
3:00 PM 54 °F - 44 °F 60%  in 6 mi SW 17.3 mph - - Rain Heavy Rain
3:50 PM 51.8 °F - 44.6 °F 76% 30.27 in 6.2 mi SW 12.7 mph - N/A Rain , Thunderstorm Light Thunderstorms and Rain
4:50 PM 51.8 °F - 42.8 °F 71% 30.27 in 6.2 mi Variable 2.3 mph - N/A   Mostly Cloudy
5:50 PM 51.8 °F - 41.0 °F 67% 30.27 in 6.2 mi South 3.5 mph - N/A   Mostly Cloudy
6:50 PM 50.0 °F - 39.2 °F 66% 30.27 in 6.2 mi Variable 3.5 mph - N/A   Scattered Clouds
7:50 PM 50.0 °F - 39.2 °F 66% 30.27 in 6.2 mi NE 8.1 mph - N/A   Mostly Cloudy
8:50 PM 50.0 °F - 39.2 °F 66% 30.27 in 6.2 mi NE 4.6 mph - N/A   Mostly Cloudy
9:00 PM 51 °F - 37 °F 49%  in 7 mi NE 4.6 mph - -   Partly Cloudy
9:50 PM 48.2 °F - 39.2 °F 71% 30.27 in 6.2 mi East 9.2 mph - N/A   Mostly Cloudy
10:50 PM 48.2 °F - 39.2 °F 71% 30.24 in 6.2 mi Variable 2.3 mph - N/A   Mostly Cloudy
11:50 PM 42.8 °F - 39.2 °F 87% 30.27 in 6.2 mi Variable 2.3 mph - N/A   Mostly Cloudy